[[[{"header":{"parameterUnit":"kt","parameterCategory":2,"dx":1,"dy":1,"la1":30.253999710083008,"la2":30.299108505249023,"lo1":-89.0895004272461,"lo2":-89.04439544677734,"nx":28,"ny":28,"refTime":"2022-10-13T21:00:00:Z","depth":"0","parameterNumber":2,"parameterNumberName":"U-component_of_CURRENTS"},"data":[0.4772,0.4711,0.4672,0.4478,0.4405,0.4179,0.408,0.3971,0.3995,0.3983,0.4034,0.4178,0.4221,0.3938,0.3532,0.3481,0.3149,0.3055,0.3153,0.3535,0.3619,0.3699,0.3423,0.2903,0.2902,0.2031,0.2024,0.2019,0.4818,0.4797,0.476,0.4685,0.4588,0.4608,0.4533,0.4416,0.4384,0.4544,0.4652,0.4786,0.4804,0.4894,0.4822,0.4595,0.4441,0.4376,0.3916,0.3896,0.4728,0.4476,0.4171,0.4171,0.4171,0.4172,0.4172,0.4173,0.4924,0.4879,0.4881,0.4834,0.4813,0.4737,0.4639,0.4693,0.4703,0.4732,0.5005,0.5129,0.5324,0.577,0.5823,0.5577,0.5789,0.5361,0.5361,0.5236,0.4915,0.5823,0.5925,0.593,0.5933,0.5937,0.594,0,0.4995,0.5008,0.4985,0.4951,0.4927,0.4881,0.4878,0.4878,0.4956,0.5022,0.5162,0.5299,0.568,0.5815,0.6163,0.6295,0.5935,0.6298,0.5942,0.5203,0.4908,0.481,0.579,0.5907,0.5911,0.5915,0.5917,0.5919,0.5146,0.5098,0.5071,0.5053,0.5031,0.5005,0.4999,0.5043,0.505,0.5185,0.5203,0.5431,0.5575,0.6004,0.6212,0.654,0.6266,0.6386,0.6227,0.5814,0.5782,0.5589,0.5472,0.5967,0.5961,0.5956,0.5952,0,0.5244,0.5233,0.5152,0.5125,0.5125,0.5086,0.5091,0.5085,0.515,0.5188,0.5217,0.5371,0.5613,0.5808,0.6131,0.6231,0.6248,0.6544,0.6155,0.615,0.5863,0.5797,0.5683,0.5551,0.6768,0.6768,0.6769,0,0.5358,0.5294,0.5274,0.5222,0.5179,0.5175,0.5147,0.5169,0.5212,0.5228,0.5313,0.5362,0.5555,0.5731,0.5901,0.6149,0.6215,0.6262,0.6312,0.5981,0.5947,0.569,0.5611,0.6359,0.6356,0.6353,0.635,0,0.5465,0.5375,0.531,0.5286,0.5244,0.5225,0.5219,0.5236,0.5236,0.53,0.5323,0.5426,0.5486,0.5676,0.5834,0.5797,0.613,0.6111,0.6219,0.622,0.6027,0.6001,0.5716,0.6346,0.6345,0.6344,0.6343,0,0.5536,0.5483,0.5386,0.5343,0.5315,0.5279,0.5268,0.5253,0.5284,0.5297,0.5328,0.5359,0.5431,0.5421,0.5672,0.5571,0.5728,0.5818,0.5835,0.5833,0.5829,0.5819,0.5835,0.5448,0.6034,0.603,0.6026,0,0.5666,0.5542,0.551,0.5419,0.5353,0.5355,0.5339,0.5322,0.5322,0.5322,0.5336,0.5344,0.5333,0.5336,0.5395,0.5513,0.562,0.5449,0.5831,0.5844,0.5788,0.5841,0.5488,0.5787,0.5977,0.5983,0.5986,0,0.5737,0.5633,0.5607,0.5561,0.5491,0.5444,0.5422,0.5381,0.538,0.534,0.5346,0.5321,0.5339,0.5352,0.535,0.5406,0.5547,0.5457,0.5465,0.5621,0.5854,0.5785,0.5813,0.5559,0.5563,0.5566,0.5947,0,0.579,0.5719,0.5678,0.5567,0.5531,0.5478,0.5439,0.5413,0.5402,0.5387,0.5379,0.537,0.5384,0.5357,0.5359,0.5409,0.5479,0.5472,0.5508,0.5504,0.5671,0.5701,0.5374,0.5376,0.5378,0.5379,0,0,0.5881,0.5776,0.5718,0.5641,0.5608,0.558,0.5521,0.5498,0.5444,0.544,0.5433,0.5431,0.5429,0.5428,0.5402,0.5396,0.5503,0.5402,0.5481,0.5491,0.5502,0.5661,0.5688,0.5382,0.5382,0.5383,0.5383,0,0.5871,0.5816,0.574,0.5692,0.5613,0.5586,0.5571,0.5505,0.5492,0.545,0.5473,0.5463,0.5445,0.545,0.5457,0.5413,0.5525,0.541,0.5376,0.5488,0.5497,0.5505,0.5662,0.5685,0.5387,0.5386,0.5386,0,0.5898,0.5832,0.5798,0.5697,0.5653,0.5597,0.5601,0.5551,0.5525,0.5544,0.5504,0.5512,0.5532,0.5502,0.5496,0.5503,0.5557,0.5476,0.547,0.5507,0.5628,0.5635,0.5642,0.5561,0.5561,0.5561,0,0,0.5887,0.582,0.5744,0.5692,0.5657,0.5615,0.5588,0.5571,0.5545,0.5535,0.5528,0.5534,0.5541,0.5529,0.5538,0.5503,0.5608,0.5494,0.5485,0.5478,0.551,0.5628,0.5635,0.5562,0.5562,0.5562,0,0,0.5896,0.5796,0.5774,0.5703,0.5651,0.5601,0.5572,0.5565,0.5542,0.5549,0.5562,0.5563,0.5551,0.5561,0.5568,0.5538,0.5578,0.5576,0.5509,0.5499,0.5491,0.5528,0.5601,0,0,0,0,0,0.5848,0.5804,0.5783,0.5765,0.5666,0.5603,0.5593,0.557,0.5584,0.5558,0.556,0.5584,0.5566,0.5572,0.5573,0.5548,0.5572,0.557,0.5568,0.5477,0.5467,0.5458,0,0,0,0,0,0,0.584,0.5816,0.5785,0.5731,0.5709,0.5605,0.5622,0.5615,0.5586,0.5586,0.5581,0.5584,0.5592,0.5574,0.5574,0.555,0.5601,0.5571,0.557,0.5568,0.5474,0.5465,0.5458,0,0,0,0,0,0.5834,0.5815,0.5658,0.5732,0.5713,0.5671,0.5623,0.5617,0.5595,0.5595,0.5595,0.5579,0.5591,0.5592,0.5574,0.5549,0.5602,0.5602,0.557,0.5569,0.5568,0.547,0,0,0,0,0,0,0.583,0.5815,0.5654,0.5649,0.5745,0.5676,0.5663,0.562,0.5606,0.5604,0.5595,0.5596,0.559,0.5591,0.5592,0.5547,0.5602,0.5602,0.5602,0.5569,0.5568,0.5567,0,0,0,0,0,0,0.5825,0.581,0.5651,0.5669,0.5665,0.5682,0.5669,0.5663,0.5609,0.5609,0.5608,0.5596,0.5611,0.559,0.5591,0.5581,0.5602,0.5602,0.5602,0.5602,0.5568,0.5568,0,0,0,0,0,0,0.5819,0.5805,0.5671,0.5668,0.5664,0.56,0.568,0.5594,0.5579,0.5612,0.5582,0.5583,0.5611,0.561,0.559,0.558,0.5581,0.5602,0.5602,0.5602,0.5602,0,0,0,0,0,0,0,0.5813,0.5901,0.5687,0.5666,0.5664,0.5596,0.5595,0.5593,0.5579,0.5581,0.5582,0.5583,0.5603,0.5603,0.5603,0.5579,0,0,0.5602,0.5602,0,0,0,0,0,0,0,0,0.5907,0.5902,0.5687,0.5686,0.5684,0.5596,0.5595,0.5594,0.558,0.5581,0.5581,0.5582,0.5603,0.5603,0.5603,0,0,0,0,0,0,0,0,0,0,0,0,0,0,0,0.5687,0.5686,0,0.5596,0.5595,0.5594,0.558,0.558,0.5581,0.5582,0.5603,0.5603,0.5603,0,0,0,0,0,0,0,0,0,0,0,0,0,0,0,0,0,0,0,0,0,0,0,0,0,0,0,0,0,0,0,0,0,0,0,0,0,0,0,0,0,0,0,0,0,0,0,0,0,0,0,0,0,0,0,0,0,0,0,0,0,0,0,0,0,0,0,0,0]}],[{"header":{"parameterUnit":"kt","parameterCategory":2,"dx":1,"dy":1,"la1":30.253999710083008,"la2":30.299108505249023,"lo1":-89.0895004272461,"lo2":-89.04439544677734,"nx":28,"ny":28,"refTime":"2022-10-13T21:00:00:Z","depth":"0","parameterNumber":3,"parameterNumberName":"V-component_of_CURRENTS"},"data":[-0.0653,-0.0554,-0.0541,-0.0285,-0.0166,0.0055,0.0199,0.0457,0.0742,0.1226,0.1573,0.1811,0.1861,0.1178,0.0666,0.052,0.0279,0.0306,0.0146,0.024,0.0243,0.0246,0.0146,0.0207,0.0206,-0.0008,-0.0011,-0.0013,-0.0761,-0.0731,-0.0596,-0.0478,-0.0306,-0.0292,-0.0027,0.0147,0.0482,0.0864,0.117,0.1537,0.1501,0.134,0.105,0.0754,0.0626,0.0585,0.0499,0.0471,0.0703,0.0626,0.0791,0.0791,0.0791,0.0791,0.0791,0.0791,-0.0962,-0.0876,-0.0848,-0.0739,-0.0606,-0.0424,-0.0262,-0.0044,0.0264,0.0663,0.0797,0.1158,0.1233,0.1246,0.1077,0.0836,0.0799,0.0722,0.0626,0.0589,0.0486,0.0633,0.0929,0.0928,0.0927,0.0926,0.0926,0,-0.117,-0.119,-0.1093,-0.0999,-0.0883,-0.0712,-0.052,-0.0362,-0.0123,0.0137,0.0503,0.0704,0.09,0.1033,0.1003,0.0939,0.0664,0.078,0.0601,0.0449,0.0323,0.0255,0.0396,0.0767,0.0765,0.0763,0.0762,0.0762,-0.1441,-0.1387,-0.1302,-0.1226,-0.1163,-0.0999,-0.086,-0.0699,-0.0488,-0.0117,0.0076,0.0345,0.0574,0.0787,0.0735,0.0758,0.0556,0.0739,0.0551,0.0312,0.0178,0.0097,0.0044,0.0739,0.0742,0.0744,0.0746,0,-0.1585,-0.1601,-0.1446,-0.1344,-0.1316,-0.1169,-0.0952,-0.0759,-0.059,-0.0264,-0.0174,0.0063,0.0276,0.0318,0.0478,0.0384,0.0429,0.0451,0.0452,0.0447,0.0223,0.0102,0.0351,0.032,0.0528,0.053,0.0531,0,-0.1754,-0.1644,-0.1629,-0.1545,-0.1375,-0.1302,-0.1063,-0.0938,-0.0703,-0.0463,-0.0397,-0.0171,-0.01,0.0065,0.0019,0.0135,0.0232,0.005,0.005,0.008,0.0073,-0.0038,-0.0162,0.0142,0.014,0.0138,0.0137,0,-0.1857,-0.1767,-0.1666,-0.1621,-0.1471,-0.1375,-0.1279,-0.1083,-0.0928,-0.0695,-0.0549,-0.0366,-0.0231,-0.0158,-0.0153,-0.0252,0.0086,-0.0044,-0.0058,-0.0063,0.005,0.0042,0.0199,0.0134,0.0133,0.0133,0.0132,0,-0.1935,-0.1886,-0.1779,-0.1611,-0.1572,-0.1501,-0.1272,-0.1178,-0.0971,-0.0895,-0.0744,-0.0694,-0.0512,-0.0652,-0.0422,-0.0529,-0.0521,-0.0495,-0.0485,-0.051,-0.0642,-0.0349,-0.0093,-0.0264,-0.046,-0.0465,-0.0469,0,-0.1985,-0.1911,-0.1888,-0.1766,-0.1696,-0.1637,-0.1531,-0.1424,-0.1337,-0.1167,-0.1101,-0.0963,-0.1081,-0.1007,-0.0916,-0.084,-0.0737,-0.0915,-0.0692,-0.0685,-0.0708,-0.0489,-0.0416,-0.0175,-0.0529,-0.0523,-0.0519,0,-0.2022,-0.1968,-0.1958,-0.1885,-0.183,-0.1781,-0.17,-0.1576,-0.1452,-0.1433,-0.1241,-0.1214,-0.1179,-0.1146,-0.1148,-0.1045,-0.0846,-0.1106,-0.1102,-0.099,-0.0543,-0.0574,-0.0537,-0.0843,-0.0835,-0.0829,-0.0567,0,-0.2004,-0.1978,-0.1973,-0.1913,-0.1876,-0.1842,-0.179,-0.1741,-0.1713,-0.1653,-0.1523,-0.1511,-0.1406,-0.1422,-0.145,-0.1259,-0.1284,-0.1322,-0.1339,-0.1218,-0.1132,-0.1094,-0.1575,-0.1577,-0.1578,-0.158,0,0,-0.201,-0.1996,-0.1997,-0.1966,-0.1922,-0.1921,-0.1869,-0.184,-0.1799,-0.173,-0.1785,-0.1651,-0.1672,-0.1517,-0.1501,-0.1539,-0.1476,-0.1532,-0.1317,-0.1288,-0.1261,-0.1169,-0.1131,-0.1583,-0.1584,-0.1584,-0.1585,0,-0.1997,-0.2014,-0.2001,-0.1974,-0.1949,-0.1921,-0.1917,-0.1883,-0.1848,-0.1808,-0.1787,-0.1735,-0.1737,-0.1667,-0.1644,-0.1573,-0.1552,-0.1601,-0.1481,-0.1338,-0.1307,-0.1279,-0.1183,-0.1147,-0.1589,-0.1589,-0.1589,0,-0.1977,-0.1969,-0.197,-0.1961,-0.1945,-0.1909,-0.1913,-0.1902,-0.185,-0.1874,-0.1816,-0.1812,-0.1798,-0.175,-0.1739,-0.176,-0.16,-0.1716,-0.1707,-0.1658,-0.151,-0.1476,-0.1446,-0.1824,-0.1824,-0.1825,0,0,-0.1956,-0.1955,-0.1937,-0.1957,-0.1949,-0.192,-0.1909,-0.1893,-0.1874,-0.1864,-0.1852,-0.1839,-0.181,-0.1802,-0.1796,-0.177,-0.171,-0.1741,-0.173,-0.172,-0.1667,-0.1518,-0.1486,-0.1826,-0.1826,-0.1827,0,0,-0.1945,-0.1927,-0.1922,-0.1948,-0.1925,-0.1897,-0.1894,-0.1876,-0.1855,-0.1857,-0.1852,-0.1853,-0.1823,-0.1842,-0.1861,-0.1793,-0.1843,-0.184,-0.1764,-0.1751,-0.1741,-0.1672,-0.1881,0,0,0,0,0,-0.1904,-0.1929,-0.1924,-0.1927,-0.1922,-0.1902,-0.1896,-0.1874,-0.1869,-0.186,-0.1845,-0.1865,-0.1838,-0.1855,-0.1859,-0.1812,-0.1848,-0.1844,-0.184,-0.1739,-0.1724,-0.1712,0,0,0,0,0,0,-0.1905,-0.191,-0.1923,-0.1903,-0.1901,-0.1902,-0.189,-0.1883,-0.1869,-0.1866,-0.1863,-0.1865,-0.1864,-0.1855,-0.1858,-0.1813,-0.1881,-0.1846,-0.1843,-0.184,-0.1734,-0.1722,-0.1712,0,0,0,0,0,-0.1905,-0.1909,-0.1918,-0.1901,-0.1899,-0.1873,-0.189,-0.1884,-0.1868,-0.187,-0.1869,-0.1854,-0.1864,-0.1867,-0.1857,-0.181,-0.1879,-0.188,-0.1844,-0.1842,-0.1839,-0.1728,0,0,0,0,0,0,-0.1906,-0.189,-0.1916,-0.1913,-0.1902,-0.1871,-0.1869,-0.1885,-0.1873,-0.1872,-0.1863,-0.1861,-0.1864,-0.1866,-0.1868,-0.1806,-0.1877,-0.1878,-0.1879,-0.1842,-0.184,-0.1839,0,0,0,0,0,0,-0.1888,-0.1888,-0.1914,-0.1918,-0.1915,-0.187,-0.1868,-0.188,-0.1875,-0.1866,-0.1864,-0.1863,-0.188,-0.1866,-0.1867,-0.1884,-0.1876,-0.1877,-0.1878,-0.1878,-0.1841,-0.1839,0,0,0,0,0,0,-0.1887,-0.1887,-0.1918,-0.1916,-0.1913,-0.1875,-0.188,-0.1887,-0.1846,-0.1868,-0.1846,-0.1846,-0.1881,-0.1882,-0.1867,-0.1882,-0.1883,-0.1876,-0.1877,-0.1877,-0.1878,0,0,0,0,0,0,0,-0.1886,-0.19,-0.1938,-0.1914,-0.1912,-0.1886,-0.1884,-0.1883,-0.1846,-0.1846,-0.1846,-0.1846,-0.1871,-0.1872,-0.1873,-0.1881,0,0,-0.1876,-0.1876,0,0,0,0,0,0,0,0,-0.1899,-0.19,-0.1938,-0.1937,-0.1937,-0.1885,-0.1884,-0.1883,-0.1846,-0.1846,-0.1846,-0.1846,-0.1871,-0.1872,-0.1873,0,0,0,0,0,0,0,0,0,0,0,0,0,0,0,-0.1938,-0.1937,0,-0.1885,-0.1885,-0.1884,-0.1846,-0.1846,-0.1846,-0.1846,-0.1871,-0.1872,-0.1873,0,0,0,0,0,0,0,0,0,0,0,0,0,0,0,0,0,0,0,0,0,0,0,0,0,0,0,0,0,0,0,0,0,0,0,0,0,0,0,0,0,0,0,0,0,0,0,0,0,0,0,0,0,0,0,0,0,0,0,0,0,0,0,0,0,0,0,0,0]}]],[[{"header":{"parameterUnit":"kt","parameterCategory":2,"dx":1,"dy":1,"la1":30.253999710083008,"la2":30.299108505249023,"lo1":-89.0895004272461,"lo2":-89.04439544677734,"nx":28,"ny":28,"refTime":"2022-10-13T21:00:00:Z","depth":"2","parameterNumber":2,"parameterNumberName":"U-component_of_CURRENTS"},"data":[0.4719,0.4739,0.4699,0.4453,0.4422,0.4232,0.4139,0.3818,0.3575,0.2964,0.264,0.2585,0.2714,0.2194,0.2223,0.2079,0.263,0.201,0.3078,0.3565,0.3679,0.4083,0.3581,0,0,0,0,0,0.4673,0.4718,0.4852,0.4837,0.4733,0.4907,0.4872,0.4638,0.4274,0.4143,0.3888,0.3288,0.2941,0.3089,0.2838,0.2765,0.2976,0.2734,0.3051,0.318,0.3297,0.2888,0.2016,0.2013,0.201,0.2007,0,0,0.4626,0.4707,0.4837,0.4949,0.5061,0.5034,0.4992,0.4997,0.4891,0.4684,0.4849,0.4466,0.4469,0.3903,0.3876,0.389,0.4264,0.4169,0.4233,0.4311,0.3935,0.3692,0.3347,0.3353,0.3357,0.3362,0.3366,0,0.4522,0.4599,0.4733,0.4913,0.5065,0.5168,0.5301,0.531,0.5393,0.5395,0.5337,0.5263,0.5248,0.491,0.4804,0.4839,0.5237,0.4987,0.5991,0.5013,0.4809,0.4749,0.4778,0.4731,0.4745,0.4755,0.4762,0.4768,0.4384,0.4495,0.4734,0.4846,0.496,0.5149,0.5247,0.5364,0.5417,0.5564,0.5598,0.5742,0.5653,0.5764,0.5684,0.5753,0.6085,0.5329,0.5162,0.5872,0.5808,0.5794,0.5777,0.4915,0.4896,0.4881,0.4869,0,0.4319,0.443,0.4624,0.4827,0.4897,0.5035,0.5206,0.5297,0.5417,0.5547,0.5618,0.5746,0.5895,0.6062,0.6403,0.6275,0.6391,0.6316,0.5844,0.5712,0.5892,0.5854,0.6019,0.6,0.5984,0.5971,0.5959,0,0.4277,0.44,0.4578,0.4673,0.4852,0.493,0.5107,0.5195,0.5332,0.543,0.5551,0.5645,0.5923,0.609,0.6272,0.6266,0.6615,0.6212,0.6157,0.5813,0.5724,0.656,0.6521,0.687,0.6867,0.6864,0.6862,0,0.4188,0.4368,0.4523,0.4584,0.4748,0.4848,0.4935,0.5075,0.5164,0.5351,0.5424,0.5666,0.5816,0.6046,0.6206,0.6182,0.655,0.6535,0.6148,0.611,0.5813,0.5724,0.6858,0.6858,0.6857,0.6856,0.6855,0,0.4139,0.4242,0.4427,0.4569,0.4611,0.4718,0.4879,0.4979,0.5138,0.5201,0.5354,0.543,0.5699,0.5651,0.6042,0.5887,0.6042,0.6145,0.6158,0.5592,0.5405,0.528,0.5361,0.6236,0.623,0.6224,0.6219,0,0.4028,0.4196,0.4237,0.4409,0.451,0.4564,0.4672,0.4791,0.4877,0.5019,0.5144,0.5312,0.5329,0.5415,0.5555,0.5725,0.5889,0.5675,0.5936,0.5947,0.5345,0.5489,0.5071,0.5312,0.6149,0.6156,0.6161,0,0.393,0.4076,0.4097,0.4184,0.4297,0.4356,0.4485,0.462,0.4724,0.4846,0.4998,0.5202,0.5253,0.5322,0.5369,0.5497,0.5769,0.5465,0.547,0.5577,0.6088,0.5469,0.5458,0.5717,0.5725,0.5731,0.6105,0,0.3947,0.4005,0.4036,0.4142,0.42,0.4287,0.4366,0.4458,0.4534,0.4609,0.4806,0.4895,0.5043,0.5094,0.5105,0.5349,0.5328,0.5266,0.5172,0.5345,0.5483,0.5528,0.4979,0.4977,0.4976,0.4975,0,0,0.3851,0.3912,0.3914,0.3989,0.4054,0.4102,0.4199,0.4267,0.4395,0.4464,0.4451,0.4705,0.4767,0.4941,0.5017,0.5018,0.5082,0.4973,0.5247,0.5276,0.5304,0.5444,0.5488,0.4972,0.4972,0.4971,0.4971,0,0.3853,0.3836,0.3884,0.3939,0.4029,0.4069,0.411,0.4207,0.4273,0.4391,0.4449,0.4578,0.4661,0.4754,0.4799,0.4973,0.4983,0.4992,0.5085,0.5228,0.5259,0.5288,0.5431,0.5471,0.4967,0.4968,0.4968,0,0.3826,0.3844,0.3855,0.3896,0.3948,0.4026,0.403,0.4112,0.4204,0.4192,0.4339,0.4402,0.4464,0.4578,0.4637,0.4579,0.4869,0.4734,0.4745,0.4798,0.4943,0.4979,0.5012,0.4591,0.4589,0.4588,0,0,0.383,0.3844,0.3887,0.3896,0.3924,0.4001,0.4047,0.4094,0.4156,0.4194,0.4251,0.4327,0.4416,0.4443,0.4521,0.4599,0.4667,0.4685,0.4703,0.4718,0.4776,0.4926,0.4961,0.4582,0.4582,0.4582,0,0,0.3834,0.3863,0.3882,0.3876,0.3942,0.3997,0.404,0.4094,0.4171,0.4192,0.4212,0.4223,0.436,0.4357,0.4277,0.4498,0.4431,0.4447,0.4467,0.4489,0.4507,0.4559,0.4234,0,0,0,0,0,0.3867,0.3855,0.3872,0.3877,0.3921,0.3983,0.3999,0.4055,0.4093,0.4131,0.4186,0.4171,0.4332,0.4259,0.427,0.4363,0.4506,0.452,0.4532,0.4583,0.4607,0.4627,0,0,0,0,0,0,0.3869,0.3869,0.3874,0.3915,0.3928,0.3981,0.3986,0.4002,0.4089,0.4097,0.4162,0.417,0.4162,0.4253,0.4263,0.4353,0.4231,0.4511,0.4523,0.4533,0.4591,0.4611,0.4627,0,0,0,0,0,0.3871,0.3872,0.3911,0.3919,0.393,0.4007,0.3986,0.4,0.4081,0.4096,0.4108,0.4129,0.4161,0.4173,0.4259,0.435,0.4224,0.4228,0.4519,0.4528,0.4536,0.4601,0,0,0,0,0,0,0.3873,0.3896,0.3917,0.3926,0.3919,0.4008,0.4016,0.3997,0.4077,0.409,0.4055,0.4059,0.416,0.4169,0.4178,0.4351,0.4218,0.4222,0.4224,0.4526,0.4533,0.4539,0,0,0,0,0,0,0.3898,0.3902,0.3922,0.3917,0.3926,0.4009,0.4016,0.4052,0.4076,0.4031,0.4037,0.4056,0.4142,0.4167,0.4174,0.423,0.4214,0.4218,0.422,0.4222,0.4531,0.4537,0,0,0,0,0,0,0.3902,0.3906,0.3915,0.3922,0.3929,0.4032,0.4044,0.4081,0.4086,0.4026,0.4087,0.4087,0.4139,0.4147,0.4171,0.4224,0.4229,0.4214,0.4217,0.4218,0.422,0,0,0,0,0,0,0,0.3906,0.3844,0.3867,0.3925,0.3932,0.4009,0.4011,0.4013,0.4086,0.4086,0.4087,0.4087,0.4194,0.4198,0.4202,0.4219,0,0,0.4214,0.4216,0,0,0,0,0,0,0,0,0.3846,0.3844,0.3867,0.3869,0.3871,0.4009,0.4011,0.4013,0.4086,0.4086,0.4087,0.4087,0.4195,0.4198,0.4201,0,0,0,0,0,0,0,0,0,0,0,0,0,0,0,0.3867,0.3869,0,0.4009,0.4011,0.4012,0.4086,0.4086,0.4087,0.4087,0.4196,0.4198,0.4201,0,0,0,0,0,0,0,0,0,0,0,0,0,0,0,0,0,0,0,0,0,0,0,0,0,0,0,0,0,0,0,0,0,0,0,0,0,0,0,0,0,0,0,0,0,0,0,0,0,0,0,0,0,0,0,0,0,0,0,0,0,0,0,0,0,0,0,0,0]}],[{"header":{"parameterUnit":"kt","parameterCategory":2,"dx":1,"dy":1,"la1":30.253999710083008,"la2":30.299108505249023,"lo1":-89.0895004272461,"lo2":-89.04439544677734,"nx":28,"ny":28,"refTime":"2022-10-13T21:00:00:Z","depth":"2","parameterNumber":3,"parameterNumberName":"V-component_of_CURRENTS"},"data":[0.0174,0.0223,0.0285,0.0544,0.0609,0.0749,0.0871,0.1153,0.1344,0.1748,0.182,0.1923,0.1564,0.1096,0.0721,0.0383,0.0394,0.0306,0.056,0.0637,0.0659,0.046,0.0328,0,0,0,0,0,0.0193,0.0218,0.0225,0.0325,0.0474,0.0413,0.0606,0.0758,0.1208,0.1455,0.1802,0.1651,0.1545,0.1266,0.0642,0.0326,0.0288,0.0256,0.0271,0.0292,0.0312,0.0211,0.01,0.01,0.0099,0.0098,0,0,0.0236,0.0225,0.0238,0.0231,0.0261,0.0411,0.0456,0.0634,0.0928,0.128,0.146,0.1731,0.1495,0.1243,0.1044,0.0672,0.0698,0.0515,0.0523,0.0535,0.0445,0.0439,0.0396,0.0397,0.0398,0.0399,0.04,0,0.031,0.0281,0.0288,0.0255,0.0214,0.0252,0.0263,0.0353,0.0511,0.0725,0.1144,0.1373,0.1362,0.1344,0.112,0.1034,0.0813,0.0761,0.097,0.0569,0.0571,0.054,0.0542,0.0562,0.0565,0.0566,0.0567,0.0568,0.0368,0.0355,0.0324,0.0307,0.0271,0.0214,0.0232,0.0285,0.0372,0.0622,0.0733,0.0908,0.1183,0.1281,0.1094,0.1054,0.1077,0.0825,0.063,0.0783,0.0752,0.0746,0.0739,0.0591,0.0589,0.0586,0.0584,0,0.0394,0.0407,0.0394,0.0401,0.0381,0.0339,0.035,0.0395,0.0453,0.0573,0.0582,0.0816,0.0977,0.1028,0.1078,0.0954,0.0968,0.0936,0.0884,0.0845,0.0756,0.0746,0.0815,0.0813,0.0811,0.081,0.0808,0,0.0432,0.0427,0.0414,0.0418,0.0408,0.0464,0.0462,0.052,0.0595,0.0685,0.0726,0.0854,0.0832,0.0929,0.0911,0.0903,0.0966,0.0764,0.0739,0.0658,0.0644,0.0715,0.0701,0.0823,0.0822,0.0821,0.082,0,0.0402,0.0467,0.0473,0.0495,0.0572,0.0563,0.0578,0.0665,0.0704,0.0753,0.0782,0.0849,0.0842,0.0833,0.0855,0.0777,0.0918,0.0809,0.0721,0.0717,0.0614,0.0597,0.0819,0.0819,0.0818,0.0818,0.0817,0,0.0433,0.0467,0.0502,0.0561,0.0577,0.0589,0.0657,0.0703,0.0784,0.0788,0.081,0.0794,0.085,0.0748,0.0805,0.0748,0.0702,0.0695,0.0698,0.0571,0.0501,0.0522,0.0604,0.0725,0.0724,0.0723,0.0722,0,0.0383,0.0449,0.0503,0.0549,0.0574,0.0612,0.0676,0.0721,0.0726,0.0748,0.0764,0.0747,0.0705,0.0654,0.0673,0.0654,0.0673,0.0622,0.0574,0.0575,0.0482,0.0574,0.0483,0.059,0.0705,0.0707,0.0708,0,0.0355,0.0431,0.0433,0.0442,0.0515,0.0532,0.0605,0.0651,0.067,0.0653,0.0678,0.0693,0.0636,0.0629,0.0593,0.0596,0.0652,0.0492,0.0488,0.0549,0.0655,0.0565,0.0568,0.0552,0.0553,0.0554,0.0695,0,0.035,0.0377,0.0402,0.0464,0.049,0.0512,0.0544,0.0548,0.0513,0.0516,0.0527,0.0498,0.0474,0.0482,0.0445,0.049,0.0456,0.039,0.0323,0.0398,0.0453,0.0464,0.0302,0.03,0.0298,0.0296,0,0,0.028,0.0338,0.0358,0.0404,0.0422,0.0403,0.0436,0.0448,0.0425,0.0427,0.0364,0.0352,0.0315,0.0373,0.0391,0.0366,0.0341,0.0297,0.0363,0.0371,0.0378,0.0433,0.0446,0.0293,0.0292,0.0292,0.0291,0,0.0298,0.0311,0.035,0.037,0.0386,0.0398,0.0395,0.0392,0.0374,0.0366,0.0332,0.0323,0.0253,0.0272,0.0266,0.0335,0.0255,0.0295,0.0353,0.0347,0.0357,0.0366,0.0424,0.0436,0.0287,0.0287,0.0287,0,0.027,0.0306,0.0321,0.0361,0.0359,0.0393,0.0345,0.035,0.0371,0.028,0.0264,0.0227,0.0192,0.0195,0.0178,0.014,0.0178,0.0139,0.0149,0.0151,0.0141,0.0153,0.0165,0.0019,0.0018,0.0017,0,0,0.0276,0.0315,0.0338,0.0364,0.0369,0.0356,0.0355,0.0336,0.0318,0.0294,0.0236,0.0189,0.0182,0.0145,0.0123,0.0107,0.0094,0.011,0.0123,0.0133,0.0142,0.0134,0.0147,0.0015,0.0015,0.0015,0,0,0.0272,0.0323,0.0306,0.0348,0.0351,0.0364,0.0361,0.0335,0.0295,0.0272,0.0203,0.0183,0.0163,0.0112,0.0093,0.0091,0.0036,0.0038,0.0122,0.0137,0.0149,0.0169,0.0015,0,0,0,0,0,0.0295,0.0329,0.0313,0.0322,0.0351,0.0379,0.0378,0.0344,0.0303,0.0295,0.0247,0.018,0.0103,0.0085,0.0069,0.0084,-0.0013,-0.0008,-0.0003,0.0103,0.0119,0.0133,0,0,0,0,0,0,0.0298,0.031,0.0313,0.0334,0.034,0.0378,0.0336,0.0326,0.0302,0.0291,0.0199,0.0179,0.0136,0.0088,0.0074,0.009,0.0019,-0.0011,-0.0007,-0.0003,0.0108,0.0122,0.0133,0,0,0,0,0,0.0301,0.0311,0.0368,0.0332,0.0337,0.0309,0.0332,0.0324,0.0287,0.0233,0.0212,0.0256,0.014,0.0121,0.0079,0.0099,0.0028,0.0023,-0.0008,-0.0005,-0.0002,0.0115,0,0,0,0,0,0,0.0303,0.0291,0.0368,0.0368,0.0306,0.0303,0.0302,0.0322,0.0226,0.0211,0.029,0.0282,0.0143,0.0128,0.0114,0.0107,0.0035,0.003,0.0027,-0.0006,-0.0003,-0.0001,0,0,0,0,0,0,0.0286,0.0291,0.0367,0.0337,0.0333,0.0298,0.0298,0.0259,0.0221,0.0284,0.0278,0.0287,0.0133,0.0133,0.0121,0.0065,0.004,0.0035,0.0032,0.003,-0.0003,-0.0001,0,0,0,0,0,0,0.0287,0.0292,0.0336,0.0333,0.0329,0.0321,0.0258,0.0266,0.0271,0.0286,0.0263,0.0259,0.0137,0.0126,0.0127,0.0077,0.0068,0.004,0.0037,0.0035,0.0033,0,0,0,0,0,0,0,0.0288,0.027,0.0375,0.033,0.0326,0.0369,0.0368,0.0368,0.027,0.0267,0.0264,0.0261,0.0066,0.0061,0.0056,0.0086,0,0,0.004,0.0038,0,0,0,0,0,0,0,0,0.0267,0.027,0.0375,0.0375,0.0376,0.0369,0.0368,0.0368,0.0269,0.0267,0.0264,0.0262,0.0065,0.0061,0.0057,0,0,0,0,0,0,0,0,0,0,0,0,0,0,0,0.0375,0.0375,0,0.0369,0.0368,0.0368,0.0269,0.0267,0.0265,0.0263,0.0063,0.006,0.0057,0,0,0,0,0,0,0,0,0,0,0,0,0,0,0,0,0,0,0,0,0,0,0,0,0,0,0,0,0,0,0,0,0,0,0,0,0,0,0,0,0,0,0,0,0,0,0,0,0,0,0,0,0,0,0,0,0,0,0,0,0,0,0,0,0,0,0,0,0]}]],[[{"header":{"parameterUnit":"kt","parameterCategory":2,"dx":1,"dy":1,"la1":30.253999710083008,"la2":30.299108505249023,"lo1":-89.0895004272461,"lo2":-89.04439544677734,"nx":28,"ny":28,"refTime":"2022-10-13T21:00:00:Z","depth":"4","parameterNumber":2,"parameterNumberName":"U-component_of_CURRENTS"},"data":[-0.0069,-0.0006,0.0024,0.0107,0.0186,0.0322,0.0439,0.0631,0.0706,0.099,0.0991,0.1206,0.1206,0.1359,0.1264,0.1273,0.1244,0.1386,0.1382,0.1399,0.141,0.1419,0.1439,0,0,0,0,0,-0.0032,-0.0014,0.0061,0.0181,0.0289,0.039,0.0586,0.0719,0.1017,0.1097,0.1253,0.1301,0.1338,0.1361,0.1294,0.1389,0.1382,0.1299,0.1305,0.1406,0.1417,0.1433,0,0,0,0,0,0,0.0011,0.003,0.0112,0.0238,0.0366,0.0459,0.06,0.0786,0.0963,0.1333,0.1346,0.1494,0.1638,0.157,0.1498,0.1459,0.143,0.1369,0.1382,0.1393,0.1397,0.1333,0.1232,0,0,0,0,0,0.0053,0.0087,0.0158,0.0291,0.0427,0.0557,0.0787,0.0884,0.1185,0.1384,0.1537,0.1597,0.1649,0.1633,0.1602,0.1512,0.1579,0.1519,0.1524,0.1535,0.1493,0.1409,0.1406,0.1461,0.1463,0.1463,0.1464,0,0.0099,0.0126,0.0273,0.0335,0.0428,0.064,0.0771,0.1042,0.1175,0.1485,0.1545,0.171,0.1809,0.17,0.1724,0.1623,0.1604,0.1549,0.1561,0.1512,0.1425,0.1419,0.1413,0.1473,0.1473,0.1472,0.1471,0,0.0114,0.0179,0.0251,0.042,0.051,0.0638,0.0909,0.1029,0.1271,0.1472,0.1562,0.1754,0.1814,0.1838,0.1832,0.1757,0.1683,0.1637,0.1715,0.1627,0.1436,0.1426,0.1489,0.1485,0.1482,0.148,0.1478,0,0.0153,0.0207,0.0341,0.0379,0.0528,0.0663,0.0859,0.1012,0.1224,0.1378,0.1557,0.1685,0.1799,0.1825,0.1778,0.1725,0.1787,0.1657,0.1575,0.1656,0.1644,0.1619,0.1602,0.1773,0.1773,0.1774,0.1774,0,0.018,0.0262,0.0334,0.0371,0.0518,0.0621,0.0742,0.0949,0.1069,0.1315,0.1428,0.1618,0.1742,0.1756,0.1758,0.1745,0.178,0.1704,0.1576,0.1562,0.1615,0.1597,0.1775,0.1775,0.1775,0.1775,0.1775,0,0.0212,0.0259,0.0329,0.0463,0.0488,0.0571,0.077,0.087,0.1058,0.1165,0.1367,0.1453,0.1632,0.1618,0.1716,0.1699,0.1666,0.1637,0.163,0.1523,0.1345,0.1292,0.1452,0.145,0.1448,0.1447,0.1446,0,0.0227,0.0278,0.0326,0.0404,0.0434,0.0521,0.0616,0.0741,0.0859,0.0997,0.1132,0.1291,0.1337,0.1449,0.1519,0.1511,0.1557,0.153,0.1425,0.1422,0.1305,0.1437,0.1497,0.1425,0.1427,0.1429,0.1431,0,0.0234,0.0303,0.0305,0.0349,0.0416,0.0457,0.0552,0.0651,0.0751,0.0874,0.1008,0.1179,0.1273,0.1321,0.1368,0.1425,0.1508,0.1375,0.1372,0.1324,0.1522,0.1418,0.1418,0.1476,0.148,0.1484,0.1416,0,0.0278,0.0304,0.0308,0.0347,0.0392,0.0418,0.048,0.0551,0.0615,0.0678,0.0858,0.0936,0.1065,0.1089,0.1102,0.1262,0.1201,0.115,0.1088,0.1211,0.1155,0.1167,0.0991,0.0988,0.0986,0.0985,0,0,0.0258,0.0284,0.0301,0.0317,0.035,0.0371,0.0401,0.0437,0.0509,0.0574,0.0581,0.0772,0.0792,0.094,0.1019,0.0988,0.0973,0.102,0.1145,0.1162,0.1179,0.1134,0.1148,0.0981,0.0981,0.098,0.0979,0,0.0255,0.0282,0.0294,0.0312,0.0346,0.0358,0.0368,0.04,0.0445,0.0525,0.0559,0.0663,0.0718,0.0795,0.0824,0.0948,0.09,0.0963,0.1107,0.1125,0.1146,0.1164,0.1124,0.1138,0.0975,0.0975,0.0975,0,0.0245,0.026,0.0275,0.0297,0.0303,0.0322,0.0311,0.0343,0.0389,0.0384,0.0475,0.0524,0.0558,0.0662,0.0704,0.0671,0.082,0.0778,0.0789,0.0848,0.0864,0.0888,0.091,0.0632,0.0631,0.0631,0,0,0.0235,0.0257,0.0268,0.0293,0.0295,0.0301,0.0311,0.0338,0.0363,0.0381,0.042,0.0474,0.0529,0.0564,0.061,0.0674,0.0657,0.0737,0.0753,0.0767,0.0832,0.0853,0.0876,0.0627,0.0627,0.0627,0,0,0.0224,0.0244,0.0262,0.0284,0.03,0.0297,0.0312,0.0317,0.0355,0.0382,0.0391,0.0404,0.05,0.0495,0.0445,0.0613,0.0545,0.0554,0.0621,0.0641,0.0657,0.0729,0.0429,0,0,0,0,0,0.0223,0.0237,0.0254,0.0261,0.0281,0.0286,0.0289,0.0315,0.0318,0.0332,0.0378,0.0367,0.05,0.0455,0.0458,0.0538,0.0578,0.0587,0.0595,0.0696,0.0717,0.0735,0,0,0,0,0,0,0.0225,0.0231,0.0254,0.0251,0.0256,0.0285,0.0294,0.03,0.0319,0.0325,0.0358,0.0367,0.0384,0.0452,0.0455,0.0533,0.0428,0.0582,0.0589,0.0595,0.0703,0.0721,0.0735,0,0,0,0,0,0.0227,0.0232,0.0265,0.025,0.0255,0.0289,0.0295,0.0301,0.0315,0.0346,0.0354,0.034,0.0382,0.0389,0.0453,0.0533,0.0426,0.0427,0.0586,0.0592,0.0597,0.0712,0,0,0,0,0,0,0.0229,0.0223,0.0266,0.0268,0.0269,0.0289,0.0294,0.0301,0.0336,0.0344,0.0328,0.0332,0.038,0.0386,0.039,0.0536,0.0424,0.0425,0.0426,0.0591,0.0595,0.0599,0,0,0,0,0,0,0.0222,0.0225,0.0267,0.0288,0.0293,0.0289,0.0294,0.03,0.0337,0.0315,0.032,0.033,0.0391,0.0383,0.0387,0.0394,0.0422,0.0424,0.0424,0.0425,0.0594,0.0598,0,0,0,0,0,0,0.0223,0.0226,0.0288,0.0291,0.0295,0.0313,0.0296,0.0324,0.0332,0.0314,0.0337,0.034,0.0389,0.0392,0.0385,0.039,0.0393,0.0423,0.0423,0.0424,0.0424,0,0,0,0,0,0,0,0.0224,0.0205,0.0262,0.0293,0.0296,0.0287,0.0287,0.0287,0.0333,0.0335,0.0337,0.0339,0.0416,0.0417,0.0418,0.0386,0,0,0.0422,0.0423,0,0,0,0,0,0,0,0,0.0204,0.0204,0.0262,0.0263,0.0263,0.0287,0.0287,0.0287,0.0333,0.0335,0.0336,0.0338,0.0416,0.0417,0.0418,0,0,0,0,0,0,0,0,0,0,0,0,0,0,0,0.0262,0.0262,0,0.0287,0.0287,0.0287,0.0333,0.0335,0.0336,0.0337,0.0417,0.0417,0.0418,0,0,0,0,0,0,0,0,0,0,0,0,0,0,0,0,0,0,0,0,0,0,0,0,0,0,0,0,0,0,0,0,0,0,0,0,0,0,0,0,0,0,0,0,0,0,0,0,0,0,0,0,0,0,0,0,0,0,0,0,0,0,0,0,0,0,0,0,0]}],[{"header":{"parameterUnit":"kt","parameterCategory":2,"dx":1,"dy":1,"la1":30.253999710083008,"la2":30.299108505249023,"lo1":-89.0895004272461,"lo2":-89.04439544677734,"nx":28,"ny":28,"refTime":"2022-10-13T21:00:00:Z","depth":"4","parameterNumber":3,"parameterNumberName":"V-component_of_CURRENTS"},"data":[0.0839,0.0957,0.0982,0.1148,0.126,0.1432,0.1474,0.1487,0.1391,0.1393,0.1153,0.1146,0.071,0.0915,0.0314,0.0239,0.01,-0.0254,-0.0258,-0.0478,-0.0481,-0.0483,-0.0329,0,0,0,0,0,0.0831,0.0889,0.1013,0.1177,0.1344,0.1452,0.1539,0.156,0.1587,0.1479,0.1429,0.1161,0.0761,0.0545,0.0303,0.0202,-0.0167,-0.0088,-0.0268,-0.048,-0.0483,-0.0332,0,0,0,0,0,0,0.0827,0.0873,0.1012,0.1172,0.136,0.1442,0.1513,0.1519,0.153,0.145,0.1375,0.1092,0.0945,0.054,0.0234,-0.0011,-0.0103,-0.0177,-0.0196,-0.0203,-0.0038,0.0169,0.0039,0,0,0,0,0,0.0814,0.0894,0.0964,0.1168,0.1329,0.1431,0.1565,0.1567,0.156,0.1579,0.1386,0.1156,0.0868,0.0474,0.0214,-0.0123,-0.0332,-0.0405,-0.041,-0.0413,-0.0288,-0.0311,-0.0291,-0.0495,-0.0495,-0.0495,-0.0496,0,0.0819,0.0873,0.1029,0.112,0.12,0.1348,0.1446,0.1487,0.1485,0.1401,0.1355,0.116,0.1002,0.0486,0.0176,-0.0254,-0.0298,-0.0411,-0.0413,-0.029,-0.0318,-0.0296,-0.0275,-0.0498,-0.0498,-0.0498,-0.0497,0,0.0837,0.0882,0.0946,0.1045,0.1123,0.1209,0.1335,0.1352,0.135,0.1329,0.1329,0.1127,0.0867,0.0584,0.0166,0.0016,-0.0293,-0.0362,-0.021,-0.0248,-0.0292,-0.0269,-0.0502,-0.0501,-0.05,-0.05,-0.0499,0,0.0833,0.0873,0.0961,0.0999,0.1097,0.1103,0.1184,0.1184,0.115,0.114,0.1044,0.0982,0.0702,0.0487,0.0248,-0.0012,-0.0098,-0.0196,-0.0248,-0.0183,-0.0163,-0.024,-0.0223,-0.0373,-0.0371,-0.037,-0.0368,0,0.0838,0.0861,0.0914,0.0926,0.0951,0.1004,0.1036,0.1012,0.1016,0.0957,0.0948,0.0773,0.0739,0.0478,0.0278,0.0286,-0.0074,-0.012,-0.0187,-0.018,-0.0224,-0.021,-0.0367,-0.0366,-0.0366,-0.0365,-0.0365,0,0.0807,0.0834,0.0881,0.0899,0.0906,0.0947,0.096,0.096,0.0879,0.0869,0.0813,0.0756,0.0632,0.0616,0.0324,0.0421,0.0272,0.0137,0.0124,0.0161,0.0151,0.0102,0.0008,0.0012,0.0015,0.0018,0.0021,0,0.0798,0.0826,0.0822,0.0854,0.0864,0.0855,0.0856,0.0844,0.0828,0.079,0.0706,0.0693,0.0685,0.0701,0.0566,0.0411,0.0298,0.0429,0.0121,0.0113,0.0203,0.0125,0.0272,0.0068,0.0062,0.0058,0.0055,0,0.0782,0.0786,0.0795,0.0811,0.081,0.0822,0.0818,0.0795,0.0793,0.0778,0.0745,0.0693,0.0685,0.065,0.0622,0.0501,0.0366,0.0476,0.0466,0.0413,0.0086,0.0173,0.0154,0.0296,0.0291,0.0288,0.0087,0,0.0764,0.0773,0.0776,0.0779,0.0788,0.0793,0.0783,0.0788,0.0797,0.0776,0.0745,0.0702,0.0662,0.0637,0.0627,0.0524,0.0524,0.0475,0.0458,0.0418,0.0341,0.0316,0.0598,0.0597,0.0596,0.0595,0,0,0.0744,0.0749,0.0741,0.0746,0.0756,0.0742,0.0753,0.0742,0.0745,0.0737,0.0762,0.0689,0.0657,0.0593,0.0605,0.0581,0.0519,0.0617,0.0457,0.0443,0.0428,0.0353,0.033,0.0594,0.0593,0.0593,0.0593,0,0.0726,0.0731,0.074,0.0737,0.0743,0.0728,0.0734,0.0728,0.0738,0.074,0.0722,0.0691,0.0673,0.0627,0.0597,0.0578,0.0524,0.0586,0.061,0.0455,0.0442,0.0429,0.0353,0.0333,0.0591,0.0591,0.0591,0,0.0706,0.0704,0.0711,0.0703,0.0701,0.0697,0.0691,0.0702,0.0707,0.0688,0.0708,0.0685,0.0636,0.0622,0.0615,0.0612,0.0514,0.0584,0.0586,0.0583,0.0421,0.0407,0.0395,0.0553,0.0554,0.0554,0,0,0.0693,0.0701,0.0685,0.0697,0.0693,0.0685,0.0685,0.0695,0.0688,0.0693,0.0692,0.0675,0.0642,0.064,0.0615,0.0596,0.052,0.0584,0.0585,0.0587,0.0586,0.0426,0.0412,0.0555,0.0555,0.0555,0,0,0.0684,0.0675,0.0685,0.069,0.0686,0.0664,0.0675,0.0674,0.0675,0.0695,0.0676,0.0675,0.0668,0.0644,0.0662,0.0618,0.0603,0.0599,0.0655,0.0657,0.0658,0.0667,0.0655,0,0,0,0,0,0.0667,0.0672,0.0681,0.0682,0.0673,0.0656,0.0654,0.0668,0.068,0.0686,0.0687,0.0682,0.0649,0.0665,0.0658,0.0658,0.057,0.0567,0.0565,0.063,0.0632,0.0634,0,0,0,0,0,0,0.0667,0.0666,0.0681,0.0659,0.0658,0.0656,0.0667,0.0669,0.0681,0.0686,0.068,0.068,0.0671,0.0668,0.0662,0.0662,0.0657,0.0569,0.0567,0.0565,0.0631,0.0632,0.0634,0,0,0,0,0,0.0667,0.0666,0.0656,0.0659,0.0658,0.067,0.0668,0.067,0.0683,0.0669,0.0671,0.0699,0.067,0.0666,0.0664,0.0666,0.0661,0.0659,0.0568,0.0566,0.0564,0.0632,0,0,0,0,0,0,0.0667,0.0658,0.0655,0.0655,0.0679,0.0672,0.0673,0.0672,0.0665,0.0667,0.0685,0.0689,0.0668,0.0666,0.0663,0.0668,0.0664,0.0662,0.0661,0.0566,0.0565,0.0564,0,0,0,0,0,0,0.0659,0.0657,0.0655,0.0679,0.0681,0.0673,0.0674,0.0645,0.0665,0.0681,0.0684,0.0687,0.0678,0.0665,0.0663,0.0616,0.0667,0.0665,0.0663,0.0662,0.0565,0.0564,0,0,0,0,0,0,0.0658,0.0657,0.0679,0.0681,0.0682,0.0674,0.0647,0.0639,0.0683,0.068,0.0689,0.0691,0.0677,0.0675,0.0663,0.0617,0.0616,0.0667,0.0665,0.0664,0.0663,0,0,0,0,0,0,0,0.0657,0.0666,0.0663,0.0682,0.0684,0.065,0.0649,0.0649,0.0684,0.0686,0.0688,0.069,0.0679,0.0676,0.0674,0.0617,0,0,0.0667,0.0666,0,0,0,0,0,0,0,0,0.0667,0.0666,0.0663,0.0663,0.0664,0.065,0.0649,0.0649,0.0684,0.0686,0.0688,0.0689,0.0678,0.0676,0.0674,0,0,0,0,0,0,0,0,0,0,0,0,0,0,0,0.0663,0.0663,0,0.065,0.0649,0.0649,0.0684,0.0686,0.0687,0.0689,0.0678,0.0676,0.0675,0,0,0,0,0,0,0,0,0,0,0,0,0,0,0,0,0,0,0,0,0,0,0,0,0,0,0,0,0,0,0,0,0,0,0,0,0,0,0,0,0,0,0,0,0,0,0,0,0,0,0,0,0,0,0,0,0,0,0,0,0,0,0,0,0,0,0,0,0]}]]]